Weather History for Ortonville, MN

Change the Weather History Date:

Monday, February 11, 2013

  Actual Average (KAQP) Record (KAQP)
Temperature  
Mean Temperature 22 °F -  
Max Temperature 24 °F 24 °F 51 °F (2005)
Min Temperature 17 °F 7 °F -14 °F (2014)
Degree Days  
Heating Degree Days 44    
Moisture  
Dew Point 15 °F    
Average Humidity 79    
Maximum Humidity 93    
Minimum Humidity 68    
Precipitation  
Precipitation 0.00 in - - ()
Sea Level Pressure  
Sea Level Pressure 29.90 in    
Wind  
Wind Speed 18 mph (NW)    
Max Wind Speed 25 mph    
Max Gust Speed 40 mph    
Visibility 8 miles    
Events Snow    
Averages and records for this station are not official NWS values.
T = Trace of Precipitation, MM = Missing Value Source: NWS Daily Summary

Daily Weather History Graph

Daily Weather History Graph

Search for Another Location

Airport:

Trip Planner

Search our weather history database for the weather conditions in past years. The results will help you decide how hot, cold, wet, or windy it might be!

Date:

Astronomy

Feb. 11, 2013 Rise Set
Actual Time 7:32 AM CST 5:47 PM CST
Civil Twilight 7:02 AM CST 6:18 PM CST
Nautical Twilight 6:27 AM CST 6:53 PM CST
Astronomical Twilight 5:53 AM CST 7:27 PM CST
Moon 7:50 AM CST (2/11) 7:54 PM CST (2/11)
Length of Visible Light 11h 16m
Length of Day
10h 15m
Waxing Crescent, 3% of the Moon is Illuminated
Feb 11
Waxing Crescent
Feb 17
First Quarter
Feb 25
Full
Mar 4
Last Quarter
Mar 11
New

Hourly Weather History & Observations

Time (CST) Temp. Windchill Dew Point Humidity Pressure Visibility Wind Dir Wind Speed Gust Speed Precip Events Conditions
12:14 AM 24.8 °F 9.3 °F 21.2 °F 86% 29.59 in - NNW 24.2 mph 32.2 mph N/A   Unknown
12:34 AM 24.8 °F 10.0 °F 21.2 °F 86% 29.60 in - NNW 21.9 mph 32.2 mph N/A   Unknown
12:54 AM 24.8 °F 10.3 °F 21.2 °F 86% 29.62 in - NNW 20.7 mph 32.2 mph N/A   Unknown
1:14 AM 24.8 °F 10.7 °F 21.2 °F 86% 29.63 in - NW 19.6 mph 34.5 mph N/A   Unknown
1:34 AM 24.8 °F 10.3 °F 21.2 °F 86% 29.65 in - NW 20.7 mph 29.9 mph N/A   Unknown
1:54 AM 24.8 °F 10.0 °F 21.2 °F 86% 29.66 in - NW 21.9 mph 28.8 mph N/A   Unknown
2:14 AM 23.0 °F 8.3 °F 19.4 °F 86% 29.67 in - NW 19.6 mph 40.3 mph N/A   Overcast
2:34 AM 23.0 °F 7.2 °F 19.4 °F 86% 29.69 in - NW 23.0 mph 29.9 mph N/A   Unknown
2:54 AM 23.0 °F 6.9 °F 19.4 °F 86% 29.70 in - NW 24.2 mph 33.4 mph N/A   Overcast
3:14 AM 21.2 °F 4.5 °F 19.4 °F 93% 29.71 in - NW 24.2 mph 33.4 mph N/A   Unknown
3:34 AM 21.2 °F 4.2 °F 17.6 °F 86% 29.71 in - NW 25.3 mph 31.1 mph N/A   Unknown
3:54 AM 21.2 °F 4.2 °F 17.6 °F 86% 29.72 in - NW 25.3 mph 34.5 mph N/A   Unknown
4:14 AM 21.2 °F 5.2 °F 17.6 °F 86% 29.74 in - NW 21.9 mph 32.2 mph N/A   Overcast
4:34 AM - - - N/A% 29.75 in - NW 23.0 mph 28.8 mph N/A   Unknown
4:54 AM - - - N/A% 29.76 in - NW 20.7 mph 27.6 mph N/A   Unknown
5:14 AM - - - N/A% 29.77 in - NW 18.4 mph - N/A   Unknown
5:54 AM 19.4 °F 3.6 °F 17.6 °F 93% 29.79 in - NW 19.6 mph 28.8 mph N/A   Unknown
6:14 AM 21.2 °F 6.0 °F 17.6 °F 86% 29.80 in - NNW 19.6 mph 31.1 mph N/A   Overcast
6:34 AM 21.2 °F 5.6 °F 17.6 °F 86% 29.81 in - NW 20.7 mph 32.2 mph N/A   Overcast
6:54 AM 21.2 °F 6.4 °F 17.6 °F 86% 29.82 in - NW 18.4 mph 26.5 mph N/A   Overcast
7:14 AM 21.2 °F 7.8 °F 17.6 °F 86% 29.84 in - NW 15.0 mph 26.5 mph N/A   Overcast
7:34 AM 21.2 °F 6.8 °F 15.8 °F 80% 29.86 in - NW 17.3 mph 27.6 mph N/A   Overcast
7:54 AM 21.2 °F 5.2 °F 15.8 °F 80% 29.87 in - NNW 21.9 mph 28.8 mph N/A   Overcast
8:13 AM 19.4 °F 2.5 °F 15.8 °F 86% 29.88 in 4.0 mi NNW 23.0 mph 33.4 mph N/A   Overcast
8:34 AM 19.4 °F 4.1 °F 15.8 °F 86% 29.89 in 4.0 mi NNW 18.4 mph 32.2 mph N/A   Overcast
8:54 AM 19.4 °F 6.0 °F 15.8 °F 86% 29.90 in 7.0 mi NW 13.8 mph 23.0 mph N/A Snow Light Snow
9:14 AM 19.4 °F 5.5 °F 15.8 °F 86% 29.91 in 7.0 mi NW 15.0 mph 21.9 mph N/A Snow Light Snow
9:33 AM 19.4 °F 4.5 °F 15.8 °F 86% 29.91 in 5.0 mi NW 17.3 mph 23.0 mph N/A Snow Light Snow
9:54 AM 19.4 °F 3.2 °F 15.8 °F 86% 29.92 in 4.0 mi NW 20.7 mph 25.3 mph N/A Snow Light Snow
10:14 AM 19.4 °F 4.1 °F 15.8 °F 86% 29.93 in 4.0 mi NW 18.4 mph 26.5 mph N/A Snow Light Snow
10:34 AM 19.4 °F 5.0 °F 15.8 °F 86% 29.94 in 5.0 mi NW 16.1 mph - N/A Snow Light Snow
10:54 AM 19.4 °F 5.5 °F 15.8 °F 86% 29.96 in 5.0 mi NW 15.0 mph 21.9 mph N/A Snow Light Snow
11:14 AM 19.4 °F 4.1 °F 15.8 °F 86% 29.96 in 4.0 mi NW 18.4 mph 25.3 mph N/A Snow Light Snow
11:34 AM 21.2 °F 6.8 °F 15.8 °F 80% 29.98 in 4.0 mi NW 17.3 mph 24.2 mph N/A Snow Light Snow
11:54 AM 21.2 °F 6.8 °F 14.0 °F 74% 29.98 in 5.0 mi NW 17.3 mph 26.5 mph N/A Snow Light Snow
12:14 PM 21.2 °F 7.3 °F 14.0 °F 74% 29.98 in 4.0 mi NW 16.1 mph 24.2 mph N/A Snow Light Snow
12:34 PM 21.2 °F 7.3 °F 14.0 °F 74% 29.98 in 4.0 mi NW 16.1 mph 27.6 mph N/A Snow Light Snow
12:53 PM 21.2 °F 6.4 °F 14.0 °F 74% 29.98 in 4.0 mi NW 18.4 mph 26.5 mph N/A Snow Light Snow
1:14 PM 21.2 °F 5.2 °F 14.0 °F 74% 29.98 in 3.0 mi NW 21.9 mph 27.6 mph N/A Snow Light Snow
1:34 PM 21.2 °F 7.3 °F 14.0 °F 74% 29.98 in 5.0 mi NW 16.1 mph 24.2 mph N/A Snow Light Snow
1:54 PM 21.2 °F 7.3 °F 14.0 °F 74% 29.99 in 5.0 mi NW 16.1 mph 28.8 mph N/A Snow Light Snow
2:14 PM 21.2 °F 6.4 °F 14.0 °F 74% 29.99 in 7.0 mi NW 18.4 mph 25.3 mph N/A Snow Light Snow
2:34 PM 21.2 °F 9.5 °F 12.2 °F 68% 29.99 in 10.0 mi NW 11.5 mph 25.3 mph N/A   Overcast
2:54 PM 21.2 °F 7.3 °F 14.0 °F 74% 29.98 in 10.0 mi NW 16.1 mph 19.6 mph N/A   Overcast
3:14 PM 21.2 °F 8.9 °F 12.2 °F 68% 29.99 in 7.0 mi NW 12.7 mph 23.0 mph N/A   Overcast
3:34 PM 21.2 °F 7.8 °F 14.0 °F 74% 30.00 in 10.0 mi NW 15.0 mph 23.0 mph N/A   Overcast
3:54 PM 21.2 °F 7.3 °F 14.0 °F 74% 30.01 in 10.0 mi NW 16.1 mph 21.9 mph N/A   Overcast
4:54 PM 21.2 °F 10.1 °F 14.0 °F 74% 30.01 in 10.0 mi NW 10.4 mph - N/A   Overcast
5:14 PM 21.2 °F 10.1 °F 14.0 °F 74% 30.01 in 10.0 mi WNW 10.4 mph - N/A Snow Light Snow
5:32 PM 21.2 °F 10.9 °F 14.0 °F 74% 30.02 in 10.0 mi WNW 9.2 mph - N/A   Overcast
5:54 PM 21.2 °F 10.1 °F 14.0 °F 74% 30.02 in 10.0 mi West 10.4 mph - N/A   Overcast
6:14 PM 19.4 °F 9.5 °F 12.2 °F 74% 30.02 in 10.0 mi WNW 8.1 mph - N/A   Overcast
6:34 PM 19.4 °F 7.9 °F 12.2 °F 74% 30.02 in 10.0 mi WNW 10.4 mph - N/A   Overcast
6:54 PM 19.4 °F 8.6 °F 12.2 °F 74% 30.02 in 10.0 mi WNW 9.2 mph - N/A   Overcast
7:13 PM 19.4 °F 7.9 °F 12.2 °F 74% 30.02 in 10.0 mi WNW 10.4 mph - N/A   Overcast
7:34 PM 19.4 °F 7.9 °F 12.2 °F 74% 30.02 in 10.0 mi WNW 10.4 mph - N/A   Overcast
7:53 PM 19.4 °F 7.9 °F 12.2 °F 74% 30.03 in 10.0 mi West 10.4 mph - N/A   Overcast
8:14 PM 19.4 °F 8.6 °F 12.2 °F 74% 30.03 in 10.0 mi West 9.2 mph - N/A   Overcast
8:33 PM 19.4 °F 9.5 °F 12.2 °F 74% 30.03 in 10.0 mi WNW 8.1 mph - N/A   Overcast
8:54 PM 19.4 °F 11.5 °F 12.2 °F 74% 30.03 in 10.0 mi WNW 5.8 mph - N/A   Overcast
9:14 PM 19.4 °F - 12.2 °F 74% 30.02 in 10.0 mi Calm Calm - N/A   Overcast
9:34 PM 19.4 °F 14.3 °F 12.2 °F 74% 30.03 in 10.0 mi SW 3.5 mph - N/A   Overcast
9:53 PM 19.4 °F - 12.2 °F 74% 30.03 in 10.0 mi Calm Calm - N/A   Overcast
10:14 PM 19.4 °F 14.3 °F 12.2 °F 74% 30.02 in 10.0 mi SW 3.5 mph - N/A   Overcast
10:33 PM 19.4 °F 14.3 °F 12.2 °F 74% 30.02 in 10.0 mi SW 3.5 mph - N/A   Overcast
10:54 PM 19.4 °F 14.3 °F 12.2 °F 74% 30.01 in 10.0 mi SSW 3.5 mph - N/A   Overcast
11:14 PM 19.4 °F 12.8 °F 12.2 °F 74% 30.01 in 10.0 mi SSW 4.6 mph - N/A   Overcast
11:34 PM 19.4 °F 12.8 °F 12.2 °F 74% 30.00 in 10.0 mi South 4.6 mph - N/A   Overcast
11:54 PM 17.6 °F 9.3 °F 12.2 °F 79% 30.00 in 10.0 mi SSW 5.8 mph - N/A   Mostly Cloudy